STARLINK-3046, 49169

Orbit data source: Space-Track

STARLINK-3046, 49169 is a payload satellite owned by SpaceX/Seattle (US) in LEO that was launched on Tue, 14 Sep 2021 UTC via an FALCON 9 launch vehicle from the Air Force Western Test Range (AFWTR). Payload-class satellites include a variety of spacecraft equipped with specific instruments for various scientific and technological missions. These include communications satellites like Starlink; space stations such as the ISS; scientific satellites like the Hubble; Earth observation satellites from companies like Planet Labs, Umbra, and HawkEye 360; GPS; miniature CubeSats for education and research; and military/defense satellites.

Loading next visibility...
Identifier
49169, 2021-082AR
Orbit
LEO
Country
Flag of USUS
Related business
Manufacturer
SpaceX/Seattle
Mission
Operational Commercial Communications
Bus & Motor
STARLINK, Unknown motor
Mass
297 kg wet, ~275 kg dry
Launch date (UTC)
2021-09-14 (5 years ago)
Launch vehicle
FALCON 9
Launch site
Air Force Western Test Range (AFWTR)
Object type
Payload
Rocket body
Debris
Shape & HBR
Box + 1 Pan, 10.1 m
Radar Cross Section
13.562 m², Large (>1 m²)

Expand to show TLE details & history
Last TLE update: 14 hours ago

TLE from 14 hours ago
0 STARLINK-3046
1 49169U 21082AR  26125.38043154 -.00000202  00000-0 -90871-5 0  9992
2 49169  69.9989 131.5277 0003479 269.3535  90.7225 14.98329469254969
Epoch: 2026-05-05T09:07Z
TLE epoch observation values (Epoch: 2026-05-05T09:07:49.285Z)
Latitude
-0.00004°
Longitude
131.31623°
Altitude
574.513 km
Speed
7.574 km/s
True Right ascension
08h 46m 06s
True Declination
0° 00' 00"
Sunlit
Object was in daylight at epoch
Visualization orbit readout
Latitude
Unknown
Longitude
Unknown
Altitude
Unknown
Speed
Unknown
Apparent Right ascension
Unknown
Apparent Declination
Unknown
Sunlit
N/A
Visualization observer readout
Local Sidereal Time
07:14:15
Azimuth
Unknown
Elevation
Unknown
Doppler factor
Unknown
Orbital elements
Apogee altitude
572.423 km
Perigee altitude
567.589 km
Semi-major axis
6,948.143 km
Eccentricity
0.00035
Inclination
69.9989°
RAAN
131.5277°
Arg. of periapsis
269.3535°
True anomaly
90.76236°
Mean anomaly
90.7225°
Eccentric anomaly
90.74243°
Mean motion
3.74749 °/min
Orbital period
96.06 mins
BSTAR
-0.0000090871
Loading maneuver chart data...
Computing Atmospheric mass density...
Loading historical data...
Loading historical data...
Loading historical data...
Loading historical data...
Loading historical data...
Loading historical data...
Loading historical data...

Documentation

Showing up to 5 results
|